Probability
0 0 0 0 0 0 0 0 0 0 0 0 0 0 0 0 0 0 0 0 0 0 0 0 0 0 0 0 0 0 0 0 0 0 0 0 0 0 0 0 0 0 0
0 0 0 0 0 0 0 0 0 0 0 0 0 0 0 0 0 0 0 0 0 0 0 0 0 0 0 0 0 0 0 0 0 0 0 0 0 0 0 0 0 0 0
0 0 0 0 0 0 0 0 0 0 0 0 0 0 0 0 0 0 0 0 0 0 0 0 0 0 0 0 0 0 0 0 0 0 0 0 0 0 0 0 0 0 0
0 0 0 0 0 0 0 0 0 0 0 0 0 0 0 0 0 0 0 0 0 0 0 0 0 0 0 0 0 0 0 0 0 0 0 0 0 0 0 0 0 0 0
0 0 0 0 0 0 0 0 0 0 0 0 0 0 0 0 0 0 0 0 0 0 0 0 0 0 0 0 0 0 0 0 0 0 0 0 0 0 0 0 0 0 0
0 0 0 0 0 0 0 0 0 0 0 0 0 0 0 0 0 0 0 0 0 0 0 0 0 0 0 0 0 0 0 0 0 0 0 0 0 0 0 0 0 0 0
0 0 0 0 0 0 0 0 0 0 0 0 0 0 0 0 0 0 0 0 0 0 0 0 0 0 0 0 0 0 0 0 0 0 0 0 0 0 0 0 0 0 0
0 0 0 0 0 0 0 0 0 0 0 0 0 0 0 0 0 0 0 0 0 0 0 0 0 0 0 0 0 0 0 0 0 0 0 0 0 0 0 0 0 0 0
0 0 0 0 0 0 0 0 0 0 0 0 0 0 0 0 0 0 0 0 0 0 0 0 0 0 0 0 0 0 0 0 0 0 0 0 0 0 0 0 0 0 0
0 0 0 0 0 0 0 0 0 0 0 0 0 0 0 0 0 0 0 0 0 0 0 0 0 0 0 0 0 0 0 0 0 0 0 0 0 0 0 0 0 0 0
0 0 0 0 0 0 0 0 0 0 0 0 0 0 0 0 0 0 0 0 0 0 0 0 0 0 0 0 0 0 0 0 0 0 0 0 0 0 0 0 0 0 0
0 0 0 0 0 0 0 0 0 0 0 0 0 0 0 0 0 0 0 0 0 0 0 0 0 0 0 0 0 0 0 0 0 0 0 0 0 0 0 0 0 0 0
0 0 0 0 0 0 0 0 0 0 0 0 0 0 0 0 0 0 0 0 0 0 0 0 0 0 0 0 0 0 0 0 0 0 0 0 0 0 0 0 0 0 0
0 0 0 0 0 0 0 0 0 0 0 0 0 0 0 0 0 0 0 0 0 0 0 0 0 0 0 0 0 0 0 0 0 0 0 0 0 0 0 0 0 0 0
0 0 0 0 0 0 0 0 0 0 0 0 0 0 0 0 0 0 0 0 0 0 0 0 0 0 0 0 0 0 0 0 0 0 0 0 0 0 0 0 0 0 0
0 0 0 0 0 0 0 0 0 0 0 0 0 0 0 0 0 0 0 0 0 0 0 0 0 0 0 0 0 0 0 0 0 0 0 0 0 0 0 0 0 0 0
0 0 0 0 0 0 0 0 0 0 0 0 0 0 0 0 0 0 0 0 0 0 0 0 0 0 0 0 0 0 0 0 0 0 0 0 0 0 0 0 0 0 0
0 0 0 0 0 0 0 0 0 0 0 0 0 0 0 0 0 0 0 0 0 0 0 0 0 0 0 0 0 0 0 0 0 0 0 0 0 0 0 0 0 0 0
0 0 0 0 0 0 0 0 0 0 0 0 0 0 0 0 0 0 0 0 0 0 0 0 0 0 0 0 0 0 0 0 0 0 0 0 0 0 0 0 0 0 0
0 0 0 0 0 0 0 0 0 0 0 0 0 0 0 0 0 0 0 0 0 0 0 0 0 0 0 0 0 0 0 0 0 0 0 0 0 0 0 0 0 0 0
0 0 0 0 0 0 0 0 0 0 0 0 0 0 0 0 0 0 0 0 0 0 0 0 0 0 0 0 0 0 0 0 0 0 0 0 0 0 0 0 0 0 0
0 0 0 0 0 0 0 0 0 0 0 0 0 0 0 0 0 0 0 0 0 0 0 0 0 0 0 0 0 0 0 0 0 0 0 0 0 0 0 0 0 0 0
0 0 0 0 0 0 0 0 0 0 0 0 0 0 0 0 0 0 0 0 0 0 0 0 0 0 0 0 0 0 0 0 0 0 0 0 0 0 0 0 0 0 0
0 0 0 0 0 0 0 0 0 0 0 0 0 0 0 0 0 0 0 0 0 0 0 0 0 0 0 0 0 0 0 0 0 0 0 0 0 0 0 0 0 0 0
0 0 0 0 0 0 0 0 0 0 0 0 0 0 0 0 0 0 0 0 0 0 0 0 0 0 0 0 0 0 0 0 0 0 0 0 0 0 0 0 0 0 0
0 0 0 0 0 0 0 0 0 0 0 0 0 0 0 0 0 0 0 0 0 0 0 0 0 0 0 0 0 0 0 0 0 0 0 0 0 0 0 0 0 0 0
Wind_Speed
3 3 3 3 3 3 3 2 2 2 1 1 1 2 2 2 3 4 3 7 9 10 11 12 13 14 15 16 16 17 18 18 19 19 19 19 20 20 20 21 21 21 22
4 4 3 3 3 3 3 2 2 1 1 0 0 1 2 2 2 3 4 6 9 10 11 12 13 14 15 15 16 17 18 18 18 19 19 19 19 20 20 21 21 21 22
5 5 4 3 3 3 2 1 2 1 1 0 0 1 1 1 2 3 4 4 5 9 11 13 14 14 15 15 16 17 17 18 18 19 19 19 19 20 20 21 21 21 22
6 5 4 4 4 3 3 2 2 1 1 1 0 1 1 1 2 3 3 4 4 4 8 13 14 14 15 16 16 17 17 17 18 18 18 19 19 20 20 21 21 22 22
6 5 4 4 5 4 3 3 2 2 1 1 1 1 1 2 2 4 4 5 5 4 4 9 12 14 15 15 16 16 16 17 17 18 18 19 19 20 20 21 21 22 22
7 6 4 5 5 4 3 3 3 2 2 1 1 1 2 2 2 3 4 4 4 5 5 5 5 8 14 15 16 16 16 16 16 17 18 18 19 19 20 20 21 22 22
8 7 5 5 5 5 5 5 4 4 3 2 1 1 1 2 3 3 4 4 4 5 5 5 4 4 5 13 15 15 15 15 16 16 17 17 18 19 19 20 21 22 22
9 8 7 6 6 5 6 6 5 3 3 3 3 2 2 1 1 3 4 4 4 4 5 6 5 5 5 3 9 14 14 15 15 16 16 17 18 18 19 20 21 22 22
10 9 10 8 8 7 7 7 7 6 4 4 4 4 3 4 2 2 3 4 4 4 4 4 5 5 6 4 4 9 13 13 14 15 16 16 17 18 19 20 20 21 22
11 11 11 10 9 7 7 8 8 6 6 4 3 3 3 3 4 3 2 2 4 5 5 4 5 4 5 4 5 9 11 12 13 14 15 15 16 17 18 19 20 21 22
12 12 12 10 10 9 9 8 8 8 6 6 5 3 3 2 2 4 4 3 2 2 4 5 4 3 4 4 3 5 9 10 11 12 13 14 15 16 17 18 19 21 22
10 12 12 11 11 9 10 9 9 10 8 7 6 5 4 4 4 4 4 4 4 3 3 4 4 3 3 4 4 6 7 8 9 11 12 13 14 15 16 18 19 20 21
10 13 13 12 10 10 10 9 9 9 9 9 7 5 5 4 4 4 4 4 3 3 3 2 3 4 3 3 2 4 5 7 8 9 10 11 12 14 15 16 18 19 20
11 11 14 13 12 12 10 10 8 8 8 9 8 8 5 5 4 4 5 5 3 2 3 4 2 3 3 3 2 3 2 5 6 8 9 10 11 12 14 15 16 18 19
9 12 14 13 13 12 12 11 8 9 8 8 8 8 5 4 4 4 4 4 6 5 4 4 3 3 3 3 2 1 1 2 4 6 7 8 10 11 12 14 15 16 18
10 12 13 13 12 12 12 11 8 8 9 8 6 8 6 4 4 4 4 3 4 5 4 3 3 4 4 3 2 1 1 1 2 4 5 7 8 9 10 12 13 15 16
11 12 13 13 13 12 12 11 10 11 11 9 7 9 8 7 6 5 4 4 3 4 4 2 2 3 4 3 2 0 0 0 0 1 3 5 6 7 9 10 12 14 15
10 11 11 12 12 12 12 13 13 12 13 12 11 10 9 7 8 6 5 5 4 4 4 4 2 2 3 3 2 1 1 0 1 1 2 4 5 6 7 9 10 12 14
9 9 11 12 12 12 12 12 13 13 13 13 13 13 12 11 9 6 6 6 4 4 3 4 3 2 2 2 2 1 1 1 1 2 2 4 4 5 5 7 9 11 12
9 10 10 11 11 11 11 11 11 11 11 10 11 12 12 13 13 11 8 7 6 5 4 4 3 2 2 2 2 1 1 1 2 1 2 3 4 4 5 6 7 9 11
8 8 9 8 9 9 10 12 11 11 11 11 9 9 10 11 13 11 9 9 9 6 5 4 4 3 3 3 3 2 2 1 2 1 1 2 2 2 2 4 5 7 9
6 6 8 8 9 8 12 16 13 11 11 12 11 9 8 9 13 13 13 13 12 10 9 6 5 5 5 4 3 3 2 1 2 1 0 3 2 2 2 1 4 6 8
5 6 7 8 8 9 14 16 16 11 11 11 12 11 8 8 10 9 11 13 10 10 10 7 6 6 6 6 6 4 3 3 3 1 0 3 2 2 2 2 4 5 7
5 5 6 7 6 7 14 16 16 10 9 9 10 12 12 12 11 12 10 8 6 5 6 4 4 4 4 5 5 5 4 2 2 2 2 2 2 2 2 2 4 5 6
4 4 4 6 6 7 13 16 15 8 7 8 8 8 10 11 17 18 12 10 8 5 6 7 6 6 7 8 7 4 3 2 2 2 2 2 2 2 2 2 2 4 5
3 4 4 4 6 6 12 16 16 7 8 7 7 7 9 13 19 20 12 11 11 8 7 6 6 6 5 6 9 6 5 4 3 3 2 2 1 0 3 2 1 1 1
Wind_Direction
156 151 157 161 169 158 167 171 146 137 111 82 67 56 45 52 74 85 82 74 64 57 54 54 53 53 50 47 43 41 39 36 33 30 26 24 21 18 16 13 10 8 6
159 154 154 165 166 160 159 159 145 147 151 140 111 83 65 57 80 99 104 82 72 65 61 59 56 54 51 48 45 42 39 36 34 30 27 24 21 19 16 14 11 9 7
164 162 164 173 170 151 143 153 150 174 182 187 159 111 95 88 101 100 106 107 88 73 69 65 60 56 52 49 46 42 39 37 34 31 27 24 21 19 17 15 12 10 8
170 169 168 172 168 157 164 171 179 194 200 187 98 82 109 112 102 94 89 94 98 92 77 73 65 60 55 49 45 42 40 38 35 31 28 25 23 21 18 15 13 11 9
181 172 174 174 168 166 175 175 183 188 186 161 138 142 131 119 111 105 98 91 89 96 97 84 74 64 58 51 45 42 41 38 35 32 29 27 24 21 18 16 14 11 9
186 180 178 178 170 170 182 178 184 188 179 163 170 166 154 148 131 122 115 103 95 90 86 88 80 68 62 53 46 41 40 38 35 33 30 26 23 20 18 16 14 12 9
186 185 181 181 177 181 187 184 179 187 197 166 145 135 151 151 137 133 124 115 104 94 86 79 74 72 65 54 45 41 39 37 35 33 29 26 23 20 18 16 14 12 9
187 190 187 185 184 184 187 187 180 181 190 171 169 164 169 165 157 141 128 125 121 107 98 92 82 76 79 66 45 42 39 37 34 32 29 26 23 20 18 17 14 11 8
191 190 193 190 189 187 192 192 186 185 189 191 187 179 181 192 157 146 143 137 134 122 117 109 96 87 88 79 51 37 40 38 34 31 28 26 23 21 18 15 13 11 8
197 195 196 196 193 192 194 194 193 191 182 184 193 204 194 167 153 157 161 146 137 133 130 118 106 95 96 89 65 46 41 39 36 32 28 25 23 20 17 15 13 10 7
200 198 198 198 197 196 197 193 192 193 192 187 178 176 196 206 181 158 172 169 141 137 132 127 119 107 100 98 83 49 43 41 37 33 29 25 22 18 16 14 12 10 7
200 201 199 200 200 198 198 196 194 195 197 195 186 172 168 175 189 180 174 167 164 159 136 127 125 120 109 103 80 60 46 39 37 35 30 25 21 18 15 13 12 9 7
200 202 198 201 201 201 198 193 194 197 196 194 192 188 187 185 167 169 165 160 152 152 146 132 134 130 117 112 94 73 54 37 33 31 27 23 19 18 15 12 10 8 7
201 194 198 202 202 199 196 193 196 196 195 194 192 186 183 185 171 165 162 154 151 162 163 165 146 137 126 123 94 77 70 36 27 26 24 20 18 17 14 11 9 7 6
197 193 194 198 200 198 196 192 196 193 189 190 187 185 180 177 168 163 153 153 157 174 195 171 157 156 139 128 100 92 116 33 24 20 19 18 15 14 12 11 8 7 6
195 192 194 195 197 197 194 192 188 184 183 184 179 176 173 165 159 156 156 151 151 154 170 163 149 152 145 138 123 105 140 44 26 14 14 12 10 10 10 8 7 7 6
196 196 194 193 193 194 190 190 188 180 182 179 172 173 173 162 162 160 152 150 150 139 150 137 112 135 142 145 137 150 173 131 231 353 1 3 3 5 5 5 7 7 6
197 195 190 190 192 192 189 188 185 182 182 180 178 172 172 165 164 162 158 159 157 148 145 152 136 138 153 161 154 199 215 198 240 283 330 348 351 356 358 2 6 4 3
194 189 188 192 192 190 189 189 185 184 184 181 179 177 174 168 169 166 162 160 154 143 128 139 144 138 141 153 144 217 235 253 276 266 291 326 333 341 347 355 359 359 359
194 192 192 193 191 189 188 185 182 180 180 178 178 177 175 175 173 168 166 162 151 142 133 136 140 151 159 156 148 195 246 261 277 268 297 309 312 318 329 341 347 352 355
195 191 190 189 187 187 187 183 179 177 175 172 171 171 174 172 170 167 166 164 158 153 149 154 161 161 173 168 185 176 202 270 274 220 293 288 286 286 303 322 329 341 350
186 182 186 185 189 193 187 182 175 174 172 171 169 164 160 161 164 163 162 163 164 164 169 170 176 184 188 175 159 163 174 186 270 254 355 280 253 257 253 244 309 331 343
183 185 186 186 193 194 185 181 176 170 171 174 169 163 162 163 157 153 157 159 168 177 175 170 177 186 174 170 161 170 188 200 225 217 81 277 270 261 257 274 294 322 337
185 189 189 189 188 191 185 182 173 167 167 170 170 170 167 165 167 158 153 155 159 169 171 164 163 161 152 150 160 168 176 198 265 234 163 246 275 267 279 275 276 308 329
182 181 178 181 186 188 185 178 167 159 161 163 162 166 167 167 171 164 159 161 162 169 176 161 156 157 158 161 160 144 157 172 242 234 167 204 259 285 290 270 269 296 321
176 163 169 180 184 185 184 179 169 162 161 159 158 164 175 174 173 170 166 167 174 174 163 163 167 175 171 182 184 178 176 182 200 229 182 179 223 302 307 290 263 261 300